DW9584 Weather Reports


time (UTC)temp
C
wind
direction
speed
KPH
gust
KPH
rain 1hr
cm
rain 24hr
cm
rain mn
cm
humidity
%
barometer
mb
20260509203024 15 297 0.0 8.0 0.00 0.00 0.00 75 1010.2
20260509201518 15 346 0.0 6.4 0.00 0.00 0.00 76 1010.3
20260509200013 15 54 1.6 6.4 0.00 0.00 0.00 77 1010.0
20260509194527 15 259 1.6 8.0 0.00 0.00 0.00 77 1010.4
20260509193007 15 360 1.6 3.2 0.00 0.00 0.00 78 1010.4
20260509191526 15 332 1.6 11.3 0.00 0.00 0.00 78 1010.7
20260509190026 15 344 0.0 8.0 0.00 0.00 0.00 75 1010.9
20260509184532 14 171 1.6 8.0 0.00 0.00 0.00 74 1011.0
20260509183030 15 191 4.8 11.3 0.00 0.00 0.00 72 1011.0
20260509181520 15 311 3.2 12.9 0.00 0.00 0.00 72 1011.1
20260509180019 16 88 1.6 8.0 0.00 0.00 0.00 70 1011.2
20260509174512 16 293 0.0 6.4 0.00 0.00 0.00 68 1011.2
20260509173030 17 198 0.0 3.2 0.00 0.00 0.00 66 1011.0
20260509171534 16 294 1.6 8.0 0.00 0.00 0.00 67 1011.0
20260509170026 17 203 1.6 8.0 0.00 0.00 0.00 65 1011.1
20260509164523 17 356 0.0 4.8 0.00 0.00 0.00 65 1011.2
20260509163048 17 198 0.0 8.0 0.00 0.00 0.00 64 1011.2
20260509161527 17 174 1.6 11.3 0.00 0.00 0.00 65 1011.3
20260509160018 17 304 0.0 6.4 0.00 0.00 0.00 66 1011.5
20260509154516 17 293 0.0 3.2 0.00 0.00 0.00 67 1011.7
20260509153028 17 226 0.0 3.2 0.00 0.00 0.00 68 1011.9
20260509151528 16 350 0.0 8.0 0.00 0.00 0.00 69 1012.1
20260509150028 16 217 0.0 4.8 0.00 0.00 0.00 68 1012.1
20260509144526 16 167 0.0 6.4 0.00 0.00 0.00 68 1012.0
20260509143033 17 280 1.6 11.3 0.00 0.00 0.00 68 1011.9
20260509141526 17 226 1.6 6.4 0.00 0.00 0.00 70 1011.9
20260509140021 16 193 1.6 8.0 0.00 0.00 0.00 73 1011.7
20260509134528 16 152 0.0 3.2 0.00 0.00 0.00 75 1011.8
20260509133026 16 300 0.0 4.8 0.00 0.00 0.00 75 1011.7
20260509131526 15 215 0.0 4.8 0.00 0.00 0.00 77 1011.8
20260509130026 15 354 0.0 3.2 0.00 0.00 0.00 78 1012.1
20260509124535 15 227 0.0 6.4 0.00 0.00 0.00 79 1012.2
20260509123027 15 174 0.0 4.8 0.00 0.00 0.00 80 1012.1
20260509121535 14 72 0.0 4.8 0.00 0.00 0.00 80 1012.1
20260509120003 13 49 0.0 4.8 0.00 0.00 0.00 81 1012.1
20260509114542 13 224 0.0 3.2 0.00 0.00 0.00 81 1012.1
20260509113019 13 67 0.0 3.2 0.00 0.00 0.00 82 1012.0
20260509111516 13 152 0.0 3.2 0.00 0.00 0.00 82 1012.0
20260509110013 13 135 0.0 4.8 0.00 0.00 0.00 82 1012.2
20260509104510 12 140 0.0 1.6 0.00 0.00 0.00 82 1011.9
20260509103008 12 131 0.0 1.6 0.00 0.00 0.00 82 1011.9
20260509101507 11 134 0.0 0.0 0.00 0.00 0.00 81 1011.7
20260509100005 11 134 0.0 1.6 0.00 0.00 0.00 81 1011.8
20260509094525 11 140 0.0 0.0 0.00 0.00 0.00 80 1011.7
20260509093022 11 140 0.0 1.6 0.00 0.00 0.00 79 1011.7
20260509091520 11 140 0.0 0.0 0.00 0.00 0.00 78 1011.7
20260509090041 12 140 0.0 0.0 0.00 0.00 0.00 76 1011.8
20260509084520 12 142 0.0 1.6 0.00 0.00 0.00 76 1011.9
20260509083021 12 114 0.0 1.6 0.00 0.00 0.00 76 1011.9
20260509081506 12 192 0.0 3.2 0.00 0.00 0.00 75 1012.0
20260509080025 11 97 0.0 1.6 0.00 0.00 0.00 75 1012.0
20260509074533 11 162 0.0 3.2 0.00 0.00 0.00 75 1012.2
20260509073022 11 143 0.0 0.0 0.00 0.00 0.00 74 1012.2
20260509071522 12 143 0.0 3.2 0.00 0.00 0.00 72 1012.3
20260509070018 12 191 0.0 3.2 0.00 0.00 0.00 70 1012.3
20260509064516 12 179 0.0 0.0 0.00 0.00 0.00 69 1012.4
20260509063011 12 179 0.0 3.2 0.00 0.00 0.00 68 1012.7
20260509061528 13 179 0.0 0.0 0.00 0.00 0.00 67 1012.9
20260509060026 13 179 0.0 3.2 0.00 0.00 0.00 64 1012.8
20260509054524 14 179 0.0 3.2 0.00 0.00 0.00 62 1012.9
20260509053035 14 165 0.0 3.2 0.00 0.00 0.00 60 1013.0
20260509051524 14 212 0.0 6.4 0.00 0.00 0.00 61 1013.2
20260509050041 14 130 0.0 6.4 0.00 0.00 0.00 61 1013.3
20260509044516 14 179 0.0 3.2 0.00 0.00 0.00 61 1013.3
20260509043026 15 155 0.0 3.2 0.00 0.00 0.00 57 1013.3
20260509041528 15 235 0.0 4.8 0.00 0.00 0.00 57 1013.1
20260509040030 15 187 0.0 0.0 0.00 0.00 0.00 56 1013.2
20260509034528 15 184 0.0 3.2 0.00 0.00 0.00 55 1013.2
20260509033034 16 175 0.0 3.2 0.00 0.00 0.00 53 1013.3
20260509031531 16 181 0.0 3.2 0.00 0.00 0.00 52 1013.3
20260509030022 16 214 0.0 3.2 0.00 0.00 0.00 54 1013.1
20260509024518 16 196 0.0 4.8 0.00 0.00 0.00 52 1012.8
20260509023016 16 229 1.6 6.4 0.00 0.00 0.00 50 1013.1
20260509021516 16 293 0.0 4.8 0.00 0.00 0.00 51 1013.1
20260509020010 16 188 0.0 4.8 0.00 0.00 0.00 50 1013.0
20260509014527 16 224 0.0 3.2 0.00 0.00 0.00 49 1013.0
20260509013028 16 312 1.6 3.2 0.00 0.00 0.00 48 1012.8
20260509011525 16 234 0.0 3.2 0.00 0.00 0.00 48 1012.6
20260509010030 16 226 0.0 3.2 0.00 0.00 0.00 49 1012.2
20260509004521 16 251 0.0 3.2 0.00 0.00 0.00 47 1012.0
20260509003018 16 240 0.0 3.2 0.00 0.00 0.00 46 1011.7
20260509001508 16 245 0.0 0.0 0.00 0.00 0.00 47 1011.6
20260509000007 17 245 0.0 3.2 0.00 0.00 0.00 45 1011.5
20260508234510 17 183 0.0 1.6 0.00 0.00 0.00 42 1011.4
20260508233012 17 240 0.0 6.4 0.00 0.00 0.00 42 1011.3
20260508231508 17 300 0.0 4.8 0.00 0.00 0.00 40 1011.1
20260508230006 18 220 0.0 4.8 0.00 0.00 0.00 39 1011.0
20260508224529 18 174 0.0 3.2 0.00 0.00 0.00 37 1011.0
20260508223013 18 181 0.0 4.8 0.00 0.00 0.00 37 1010.9
20260508221515 18 235 1.6 9.7 0.00 0.00 0.00 36 1011.0
20260508220012 18 237 0.0 8.0 0.00 0.00 0.00 35 1010.9
20260508214522 18 297 1.6 8.0 0.00 0.00 0.00 35 1010.8
20260508213015 20 351 3.2 8.0 0.00 0.00 0.00 34 1010.8
20260508211516 19 321 0.0 8.0 0.00 0.00 0.00 34 1010.9
20260508210005 19 332 3.2 16.1 0.00 0.00 0.00 33 1011.0
20260508204519 20 301 6.4 16.1 0.00 0.00 0.00 34 1011.1